When you browse on this site, cookies collect data to enhance your experience and personalize the content and advertising you see.
Visit our Privacy Policy to learn more. By continuing to use the site, you agree to this use of cookies and data.
  • In France
  • List of Countries
  • For 7 days
  • Water Temperature
  • Satellite Maps
  • Weather Map
  • Weather Widgets
  • user-avatar
    Login

    Hourly Weather Zapotlan de Juarez

    Today, 20 July, Saturday

    Time Temperature Precipitation Wind Pressure Humidity
    00:00 +13°C° 0 mm 2 mps 576 mmHg 91%
    01:00 +13°C° 0 mm 1 mps 576 mmHg 91%
    02:00 +13°C° 0 mm 1 mps 575 mmHg 91%
    03:00 +13°C° 0 mm 1 mps 575 mmHg 91%
    04:00 +13°C° 0 mm 1 mps 575 mmHg 91%
    05:00 +11°C° 0 mm 0 mps 575 mmHg 91%
    06:00 +13°C° 0 mm 0 mps 576 mmHg 85%
    07:00 +15°C° 0 mm 1 mps 577 mmHg 79%
    08:00 +18°C° 0 mm 1 mps 578 mmHg 72%
    09:00 +19°C° 0.1 mm 1 mps 578 mmHg 66%
    10:00 +21°C° 0.1 mm 1 mps 579 mmHg 60%
    11:00 +20°C° 0.1 mm 0 mps 579 mmHg 54%
    12:00 +23°C° 0.3 mm 1 mps 579 mmHg 53%
    13:00 +23°C° 0.3 mm 2 mps 579 mmHg 51%
    14:00 +24°C° 0.3 mm 2 mps 578 mmHg 49%
    15:00 +21°C° 0.6 mm 3 mps 578 mmHg 56%
    16:00 +20°C° 0.6 mm 3 mps 577 mmHg 63%
    17:00 +19°C° 0.6 mm 4 mps 576 mmHg 70%
    18:00 +18°C° 0.6 mm 3 mps 576 mmHg 76%
    19:00 +16°C° 0.6 mm 3 mps 576 mmHg 81%
    20:00 +15°C° 0.6 mm 2 mps 576 mmHg 87%
    21:00 +15°C° 0.4 mm 2 mps 576 mmHg 87%
    22:00 +15°C° 0.4 mm 2 mps 576 mmHg 88%
    23:00 +14°C° 0.4 mm 2 mps 576 mmHg 88%

    Tomorrow, 21 July, Sunday

    Time Temperature Precipitation Wind Pressure Humidity
    00:00 +14°C° 0.1 mm 1 mps 576 mmHg 88%
    01:00 +14°C° 0.1 mm 1 mps 576 mmHg 88%
    02:00 +13°C° 0.1 mm 0 mps 575 mmHg 88%
    03:00 +12°C° 0 mm 0 mps 575 mmHg 88%
    04:00 +13°C° 0 mm 1 mps 575 mmHg 88%
    05:00 +13°C° 0 mm 1 mps 575 mmHg 88%
    06:00 +15°C° 0 mm 1 mps 576 mmHg 80%
    07:00 +16°C° 0 mm 1 mps 577 mmHg 73%
    08:00 +18°C° 0 mm 2 mps 578 mmHg 66%
    09:00 +19°C° 0.8 mm 2 mps 579 mmHg 61%
    10:00 +21°C° 0.8 mm 2 mps 579 mmHg 57%
    11:00 +23°C° 0.8 mm 2 mps 579 mmHg 52%
    12:00 +21°C° 1.4 mm 2 mps 579 mmHg 56%
    13:00 +21°C° 1.4 mm 3 mps 578 mmHg 60%
    14:00 +20°C° 1.4 mm 4 mps 578 mmHg 63%
    15:00 +19°C° 2.7 mm 3 mps 577 mmHg 71%
    16:00 +17°C° 2.7 mm 3 mps 576 mmHg 78%
    17:00 +16°C° 2.7 mm 2 mps 575 mmHg 85%
    18:00 +15°C° 2.9 mm 2 mps 576 mmHg 86%
    19:00 +14°C° 2.9 mm 2 mps 576 mmHg 87%
    20:00 +14°C° 2.9 mm 1 mps 577 mmHg 88%
    21:00 +14°C° 0.3 mm 1 mps 577 mmHg 87%
    22:00 +14°C° 0.3 mm 1 mps 577 mmHg 86%
    23:00 +13°C° 0.3 mm 0 mps 577 mmHg 85%

    Day after tomorrow, 22 July, Monday

    Time Temperature Precipitation Wind Pressure Humidity
    00:00 +13°C° 0.1 mm 0 mps 577 mmHg 86%
    01:00 +13°C° 0.1 mm 0 mps 576 mmHg 86%
    02:00 +14°C° 0.1 mm 1 mps 576 mmHg 87%
    03:00 +12°C° 0.1 mm 0 mps 576 mmHg 87%
    04:00 +12°C° 0.1 mm 0 mps 575 mmHg 88%
    05:00 +12°C° 0.1 mm 0 mps 575 mmHg 89%
    06:00 +13°C° 0 mm 0 mps 576 mmHg 82%
    07:00 +16°C° 0 mm 1 mps 577 mmHg 75%
    08:00 +18°C° 0 mm 1 mps 578 mmHg 68%
    09:00 +20°C° 0.4 mm 1 mps 579 mmHg 63%
    10:00 +21°C° 0.4 mm 1 mps 579 mmHg 57%
    11:00 +21°C° 0.4 mm 2 mps 579 mmHg 52%
    12:00 +21°C° 1.1 mm 3 mps 579 mmHg 54%
    13:00 +21°C° 1.1 mm 4 mps 579 mmHg 57%
    14:00 +21°C° 1.1 mm 5 mps 578 mmHg 59%
    15:00 +21°C° 1.2 mm 4 mps 578 mmHg 62%
    16:00 +20°C° 1.2 mm 4 mps 577 mmHg 66%
    17:00 +19°C° 1.2 mm 4 mps 577 mmHg 69%
    18:00 +18°C° 0.2 mm 3 mps 577 mmHg 74%
    19:00 +16°C° 0.2 mm 3 mps 577 mmHg 79%
    20:00 +15°C° 0.2 mm 2 mps 577 mmHg 84%
    21:00 +14°C° 0 mm 2 mps 577 mmHg 84%
    22:00 +14°C° 0 mm 1 mps 577 mmHg 85%
    23:00 +13°C° 0 mm 1 mps 577 mmHg 86%

    23 July, Tuesday

    Time Temperature Precipitation Wind Pressure Humidity
    00:00 +13°C° 0 mm 1 mps 576 mmHg 86%
    01:00 +13°C° 0 mm 1 mps 576 mmHg 86%
    02:00 +11°C° 0 mm 0 mps 576 mmHg 86%
    03:00 +11°C° 0 mm 0 mps 575 mmHg 87%
    04:00 +11°C° 0 mm 0 mps 575 mmHg 87%
    05:00 +11°C° 0 mm 0 mps 575 mmHg 88%
    06:00 +14°C° 0 mm 1 mps 576 mmHg 82%
    07:00 +15°C° 0 mm 1 mps 578 mmHg 75%
    08:00 +18°C° 0 mm 1 mps 579 mmHg 69%
    09:00 +20°C° 0.1 mm 1 mps 579 mmHg 64%
    10:00 +20°C° 0.1 mm 2 mps 580 mmHg 58%
    11:00 +21°C° 0.1 mm 3 mps 580 mmHg 53%
    12:00 +21°C° 0.3 mm 4 mps 579 mmHg 54%
    13:00 +21°C° 0.3 mm 4 mps 579 mmHg 55%
    14:00 +21°C° 0.3 mm 5 mps 578 mmHg 56%
    15:00 +20°C° 0.2 mm 5 mps 578 mmHg 59%
    16:00 +20°C° 0.2 mm 5 mps 578 mmHg 62%
    17:00 +19°C° 0.2 mm 5 mps 577 mmHg 65%
    18:00 +17°C° 0 mm 4 mps 577 mmHg 72%
    19:00 +16°C° 0 mm 3 mps 577 mmHg 80%
    20:00 +14°C° 0 mm 2 mps 577 mmHg 87%
    21:00 +14°C° 0 mm 2 mps 577 mmHg 88%
    22:00 +13°C° 0 mm 2 mps 577 mmHg 89%
    23:00 +13°C° 0 mm 1 mps 577 mmHg 91%

    24 July, Wednesday

    Time Temperature Precipitation Wind Pressure Humidity
    00:00 +13°C° 0 mm 1 mps 576 mmHg 91%
    01:00 +12°C° 0 mm 1 mps 576 mmHg 91%
    02:00 +12°C° 0 mm 1 mps 575 mmHg 91%
    03:00 +12°C° 0 mm 1 mps 575 mmHg 91%
    04:00 +12°C° 0 mm 1 mps 575 mmHg 90%
    05:00 +11°C° 0 mm 0 mps 575 mmHg 89%
    06:00 +13°C° 0 mm 1 mps 576 mmHg 83%
    07:00 +14°C° 0 mm 1 mps 577 mmHg 78%
    08:00 +15°C° 0 mm 1 mps 578 mmHg 72%
    09:00 +18°C° 0.1 mm 1 mps 578 mmHg 68%
    10:00 +19°C° 0.1 mm 1 mps 579 mmHg 64%
    11:00 +19°C° 0.1 mm 2 mps 579 mmHg 60%
    12:00 +20°C° 0.7 mm 3 mps 579 mmHg 61%
    13:00 +20°C° 0.7 mm 4 mps 578 mmHg 62%
    14:00 +20°C° 0.7 mm 5 mps 578 mmHg 63%
    15:00 +19°C° 0.5 mm 5 mps 578 mmHg 66%
    16:00 +18°C° 0.5 mm 4 mps 577 mmHg 69%
    17:00 +17°C° 0.5 mm 4 mps 577 mmHg 72%
    18:00 +15°C° 0.1 mm 4 mps 577 mmHg 77%
    19:00 +14°C° 0.1 mm 3 mps 577 mmHg 82%
    20:00 +14°C° 0.1 mm 2 mps 576 mmHg 87%
    21:00 +13°C° 0 mm 2 mps 576 mmHg 88%
    22:00 +13°C° 0 mm 2 mps 576 mmHg 90%
    23:00 +13°C° 0 mm 1 mps 576 mmHg 91%

    25 July, Thursday

    Time Temperature Precipitation Wind Pressure Humidity
    00:00 +12°C° 0 mm 1 mps 576 mmHg 91%
    01:00 +12°C° 0 mm 1 mps 575 mmHg 92%
    02:00 +12°C° 0 mm 1 mps 575 mmHg 92%
    03:00 +12°C° 0 mm 1 mps 575 mmHg 92%
    04:00 +12°C° 0 mm 1 mps 575 mmHg 91%
    05:00 +11°C° 0 mm 1 mps 575 mmHg 91%
    06:00 +13°C° 0 mm 1 mps 576 mmHg 84%
    07:00 +15°C° 0 mm 1 mps 577 mmHg 77%
    08:00 +16°C° 0 mm 1 mps 578 mmHg 70%
    09:00 +17°C° 0.2 mm 2 mps 578 mmHg 67%
    10:00 +19°C° 0.2 mm 3 mps 579 mmHg 63%
    11:00 +20°C° 0.2 mm 3 mps 579 mmHg 60%
    12:00 +20°C° 0.8 mm 4 mps 578 mmHg 61%
    13:00 +20°C° 0.8 mm 5 mps 578 mmHg 63%
    14:00 +20°C° 0.8 mm 5 mps 577 mmHg 64%
    15:00 +19°C° 0.4 mm 5 mps 577 mmHg 67%
    16:00 +17°C° 0.4 mm 5 mps 577 mmHg 69%
    17:00 +17°C° 0.4 mm 4 mps 577 mmHg 71%
    18:00 +16°C° 0.1 mm 3 mps 577 mmHg 76%
    19:00 +15°C° 0.1 mm 2 mps 577 mmHg 81%
    20:00 +14°C° 0.1 mm 1 mps 577 mmHg 85%
    21:00 +14°C° 0.2 mm 1 mps 577 mmHg 86%
    22:00 +14°C° 0.2 mm 1 mps 577 mmHg 86%
    23:00 +14°C° 0.2 mm 1 mps 577 mmHg 87%
    Show more